CW2927 Weather Reports


time (UTC)temp
C
wind
direction
speed
KPH
gust
KPH
rain 1hr
cm
rain 24hr
cm
rain mn
cm
humidity
%
barometer
mb
20260901112704 12 65 0.0 3.2 0.00 0.00 0.00 91 1018.2
20260901112204 12 65 1.6 3.2 0.00 0.00 0.00 91 1018.2
20260901110704 12 65 0.0 0.0 0.00 0.00 0.00 91 1017.9
20260901110203 12 65 1.6 3.2 0.00 0.00 0.00 91 1017.8
20260901104704 11 65 1.6 3.2 0.00 0.03 0.00 91 1017.4
20260901102703 11 71 4.8 8.0 0.00 0.03 0.00 91 1017.5
20260901100704 11 70 1.6 4.8 0.00 0.03 0.00 91 1017.4
20260901100204 11 67 1.6 4.8 0.00 0.03 0.00 92 1017.3
20260901094704 11 67 3.2 4.8 0.00 0.03 0.00 92 1017.2
20260901094204 11 66 3.2 8.0 0.00 0.03 0.00 92 1017.2
20260901092704 11 114 3.2 4.8 0.00 0.03 0.00 92 1017.2
20260901092204 11 114 1.6 4.8 0.00 0.03 0.00 92 1017.1
20260901090704 11 114 1.6 4.8 0.00 0.03 0.00 91 1017.2
20260901084703 11 115 0.0 1.6 0.00 0.03 0.00 91 1017.5
20260901082703 11 115 0.0 0.0 0.00 0.03 0.00 90 1017.2
20260901082204 11 115 0.0 3.2 0.00 0.03 0.00 90 1017.2
20260901080703 11 115 0.0 1.6 0.00 0.03 0.00 91 1017.1
20260901080204 11 115 0.0 4.8 0.00 0.03 0.00 91 1017.1
20260901074705 11 115 3.2 4.8 0.00 0.03 0.00 92 1017.1
20260901074205 11 115 3.2 4.8 0.00 0.03 0.00 91 1017.1
20260901072705 11 115 0.0 0.0 0.00 0.03 0.00 91 1017.4
20260901072205 11 115 0.0 3.2 0.00 0.03 0.00 91 1017.4
20260901070706 11 115 0.0 1.6 0.00 0.03 0.00 91 1017.5
20260901064205 12 115 1.6 3.2 0.00 0.03 0.00 91 1017.7
20260901062205 12 115 1.6 1.6 0.00 0.03 0.00 90 1017.6
20260901060705 12 115 1.6 3.2 0.00 0.03 0.00 90 1017.5
20260901060205 12 115 1.6 3.2 0.00 0.03 0.00 89 1017.6
20260901054705 12 115 1.6 3.2 0.00 0.03 0.00 90 1017.7
20260901054205 12 115 1.6 3.2 0.00 0.03 0.00 89 1017.7
20260901052205 12 115 1.6 3.2 0.00 0.03 0.00 89 1017.6
20260901050705 12 115 1.6 3.2 0.00 0.03 0.00 89 1017.7
20260901050206 12 115 1.6 4.8 0.00 0.03 0.00 89 1017.7
20260901044705 13 111 3.2 4.8 0.00 0.03 0.00 88 1017.7
20260901044205 13 84 0.0 1.6 0.00 0.03 0.00 88 1017.7
20260901042205 13 84 0.0 1.6 0.00 0.03 0.00 87 1017.4
20260901040705 14 84 1.6 3.2 0.00 0.03 0.00 86 1017.2
20260901034705 15 84 1.6 3.2 0.00 0.03 0.03 84 1017.1
20260901034205 15 84 0.0 1.6 0.00 0.03 0.03 83 1017.2
20260901032705 15 84 0.0 1.6 0.00 0.03 0.03 83 1017.1
20260901032205 15 84 1.6 8.0 0.00 0.03 0.03 83 1017.0
20260901030704 15 95 1.6 4.8 0.00 0.03 0.03 87 1017.1
20260901030204 15 95 1.6 3.2 0.00 0.03 0.03 86 1017.1
20260901024705 16 95 0.0 0.0 0.00 0.03 0.03 85 1017.1
20260901022705 16 95 0.0 3.2 0.00 0.03 0.03 84 1017.1
20260901022205 16 95 1.6 8.0 0.00 0.03 0.03 84 1017.1
20260901020705 16 103 1.6 3.2 0.00 0.03 0.03 84 1017.2
20260901020205 16 103 0.0 3.2 0.00 0.03 0.03 83 1017.2
20260901014705 16 103 1.6 4.8 0.00 0.03 0.03 83 1017.3
20260901012705 16 104 0.0 1.6 0.00 0.03 0.03 84 1017.4
20260901012205 16 104 1.6 4.8 0.00 0.03 0.03 84 1017.4
20260901010705 16 113 3.2 4.8 0.00 0.03 0.03 82 1017.4
20260901010204 16 191 1.6 4.8 0.00 0.03 0.03 81 1017.4
20260901004704 16 191 1.6 4.8 0.00 0.03 0.03 80 1017.3
20260901004206 16 191 1.6 3.2 0.00 0.03 0.03 80 1017.3
20260901002704 16 193 1.6 1.6 0.00 0.03 0.03 79 1017.3
20260901002204 17 193 0.0 0.0 0.00 0.03 0.03 79 1017.1
20260901000704 17 193 0.0 0.0 0.00 0.03 0.03 76 1016.9
20260901000204 17 193 1.6 3.2 0.00 0.03 0.03 76 1017.0
20260831234705 18 193 0.0 0.0 0.00 0.03 0.03 73 1016.9
20260831234205 18 193 0.0 0.0 0.00 0.03 0.03 72 1017.0
20260831232705 19 193 0.0 0.0 0.00 0.03 0.03 69 1017.0
20260831232205 20 193 0.0 0.0 0.00 0.03 0.03 68 1017.0
20260831230705 20 193 0.0 0.0 0.00 0.03 0.03 63 1017.0
20260831224705 21 192 0.0 1.6 0.00 0.03 0.03 61 1017.1
20260831224205 21 192 3.2 4.8 0.00 0.03 0.03 61 1017.2
20260831222704 22 195 0.0 4.8 0.00 0.03 0.03 59 1017.3
20260831222205 22 202 3.2 4.8 0.00 0.03 0.03 58 1017.3
20260831220705 22 173 1.6 4.8 0.00 0.03 0.03 55 1017.4
20260831220204 22 173 3.2 4.8 0.00 0.03 0.03 55 1017.4
20260831212705 22 0 3.2 4.8 0.00 0.46 0.03 56 1017.5
20260831212205 22 273 3.2 11.3 0.00 0.46 0.03 55 1017.5
20260831210705 22 266 4.8 8.0 0.00 0.46 0.03 55 1017.6
20260831204204 22 286 3.2 9.7 0.00 0.46 0.03 55 1017.7
20260831202704 22 271 4.8 9.7 0.00 0.46 0.03 54 1017.7
20260831202205 22 263 4.8 9.7 0.00 0.46 0.03 54 1017.8
20260831200704 22 285 3.2 8.0 0.00 0.46 0.03 53 1017.9
20260831200205 22 284 4.8 11.3 0.00 0.46 0.03 54 1017.9
20260831194704 22 294 4.8 9.7 0.00 0.46 0.03 53 1018.0
20260831194204 22 300 3.2 11.3 0.00 0.46 0.03 53 1018.1
20260831192204 22 265 4.8 8.0 0.00 0.46 0.03 57 1018.0
20260831190704 22 161 3.2 4.8 0.00 0.48 0.03 57 1018.2
20260831184704 22 288 3.2 8.0 0.00 0.79 0.03 60 1018.6
20260831184204 22 284 3.2 11.3 0.00 0.79 0.03 57 1018.6
20260831182705 21 40 1.6 4.8 0.00 0.79 0.03 60 1018.8
20260831182206 21 276 4.8 11.3 0.00 0.79 0.03 60 1018.9
20260831180704 21 298 4.8 11.3 0.00 0.79 0.03 60 1018.9
20260831180204 21 292 4.8 12.9 0.00 0.79 0.03 58 1018.9
20260831174704 21 263 3.2 8.0 0.00 0.79 0.03 62 1018.9
20260831174204 21 254 4.8 8.0 0.00 0.79 0.03 60 1018.9
20260831172704 21 155 3.2 8.0 0.00 0.79 0.03 63 1019.0
20260831172204 21 148 3.2 9.7 0.00 0.79 0.03 60 1019.1
20260831170704 20 38 1.6 4.8 0.00 0.79 0.03 64 1019.3
20260831170205 20 325 3.2 9.7 0.00 0.79 0.03 61 1019.4
20260831164704 20 257 3.2 8.0 0.00 0.79 0.03 65 1019.5
20260831164204 20 254 3.2 8.0 0.00 0.79 0.03 66 1019.5
20260831162704 20 285 3.2 4.8 0.00 0.79 0.03 67 1019.5
20260831162204 20 303 0.0 4.8 0.00 0.79 0.03 67 1019.7
20260831160704 20 196 3.2 8.0 0.00 0.79 0.03 66 1019.6
20260831160205 19 105 1.6 4.8 0.00 0.79 0.03 68 1019.6
20260831154704 19 102 1.6 4.8 0.00 0.79 0.03 64 1019.8
20260831154205 19 103 3.2 8.0 0.00 0.79 0.03 64 1019.8
20260831152704 19 76 1.6 4.8 0.00 0.79 0.03 68 1019.9
20260831152204 19 76 4.8 8.0 0.00 0.79 0.03 68 1020.0
20260831150704 18 65 3.2 8.0 0.00 0.79 0.03 72 1020.1
20260831144204 18 82 3.2 9.7 0.00 0.79 0.03 75 1020.4
20260831142704 17 98 3.2 8.0 0.00 0.79 0.03 82 1020.4
20260831142204 17 77 3.2 4.8 0.00 0.79 0.03 85 1020.5
20260831140704 16 71 4.8 8.0 0.00 0.79 0.03 96 1020.7
20260831140204 15 106 3.2 8.0 0.00 0.79 0.03 96 1020.7
20260831134704 14 119 1.6 3.2 0.00 0.79 0.03 97 1020.8
20260831134204 14 119 1.6 4.8 0.00 0.79 0.03 97 1020.9
20260831132704 13 75 1.6 3.2 0.00 0.79 0.03 96 1020.8
20260831132204 13 75 3.2 4.8 0.00 0.79 0.03 97 1020.8
20260831130703 12 55 3.2 4.8 0.00 0.79 0.03 96 1020.6
20260831124704 11 50 1.6 1.6 0.00 0.79 0.03 96 1020.7
20260831124204 11 50 1.6 3.2 0.00 0.79 0.03 96 1020.7
20260831122704 11 50 1.6 3.2 0.00 0.79 0.03 96 1020.6
20260831122204 11 50 0.0 4.8 0.00 0.79 0.03 96 1020.6
20260831120704 10 49 0.0 1.6 0.00 0.79 0.03 96 1020.3
20260831120204 10 49 1.6 3.2 0.00 0.79 0.03 96 1020.3
20260831114704 9 49 1.6 3.2 0.03 0.79 0.03 96 1020.3
20260831114204 9 49 1.6 3.2 0.03 0.79 0.03 96 1020.3